RH
63 48 48 56 68 46 34 33 23 26 28 22 22 26 31 28 42 59 25 26 29 33 44 58 81 79 76 77 76 75 74 74 74 73 73 74 74 73 73 72 71 73 73 74 72 72 72 74 74
42 52 54 67 81 33 36 25 27 24 24 22 26 27 36 45 31 28 27 28 28 31 37 46 83 80 76 76 74 74 73 73 73 72 71 73 72 71 73 73 71 76 73 72 70 70 68 74 74
56 50 68 49 37 71 44 25 26 26 24 23 25 25 36 46 30 26 25 27 27 32 32 51 83 81 76 74 73 72 72 71 71 69 72 73 71 71 72 74 73 75 72 73 69 68 68 74 73
46 49 57 63 40 37 32 26 24 25 22 21 23 35 39 34 30 24 26 25 26 28 32 70 81 76 76 74 73 72 72 70 72 70 72 72 73 73 73 73 73 69 74 70 67 71 74 74 74
36 42 64 63 38 34 25 24 23 23 21 22 24 34 47 45 29 25 26 24 24 27 42 52 82 79 76 74 73 73 76 73 69 72 72 74 72 71 70 73 71 70 74 70 67 72 73 73 75
53 38 50 42 30 28 26 23 27 25 24 23 22 34 44 37 29 26 24 23 22 27 35 51 77 77 76 74 73 75 72 72 71 72 72 73 72 72 70 72 71 69 73 73 71 70 74 71 72
29 46 35 28 29 31 28 21 35 26 26 23 19 36 39 34 27 24 23 22 22 26 36 43 49 63 75 75 72 75 73 72 70 70 71 72 72 72 70 74 70 66 72 72 75 72 71 72 72
24 34 37 44 49 33 25 22 21 22 24 21 20 40 45 32 26 23 23 23 23 27 31 40 44 50 57 55 74 75 71 70 72 70 70 71 71 71 72 74 70 63 72 71 72 72 71 75 75
17 37 27 26 27 29 21 23 23 21 22 23 22 23 29 28 25 25 26 26 26 26 29 30 36 49 54 57 62 71 71 71 70 71 71 69 51 57 60 68 72 64 72 71 73 71 70 72 72
18 23 23 18 19 21 18 20 22 21 22 29 30 28 28 29 28 27 28 29 28 28 28 30 36 42 44 37 62 67 55 49 51 51 57 73 53 54 75 64 72 68 74 72 70 68 68 66 51
16 20 15 16 18 17 19 19 18 20 25 26 33 37 34 34 31 27 27 26 26 26 26 30 32 39 33 57 51 50 41 41 56 65 57 52 47 46 46 50 56 51 67 53 56 55 45 74 96
16 13 13 13 14 18 20 19 20 21 21 19 28 33 34 36 31 28 26 25 25 27 28 26 30 35 32 40 56 64 34 40 41 39 46 64 43 38 62 54 59 65 50 65 68 60 66 42 50
11 12 12 13 13 18 19 21 21 20 23 20 27 34 35 33 31 28 26 25 24 27 28 26 32 42 38 42 38 44 31 35 45 38 49 61 70 42 36 49 48 46 55 47 58 53 55 67 46
9 11 13 14 16 17 19 19 20 24 21 26 28 33 33 32 29 30 27 28 26 27 28 27 34 42 38 40 43 38 32 30 51 39 41 58 50 47 48 39 41 49 57 69 72 67 72 76 67
9 12 11 14 15 17 16 36 20 23 23 28 28 30 32 30 28 32 28 28 26 26 29 30 35 37 43 44 44 38 32 29 30 38 48 50 68 60 54 63 50 44 58 51 62 73 82 96 91
10 11 15 14 13 13 12 31 23 22 23 27 27 29 31 30 29 30 28 30 31 29 35 37 33 35 42 40 43 37 34 31 31 33 39 48 66 67 72 72 50 45 42 59 61 96 88 83 96
10 14 14 14 11 10 10 15 14 19 22 27 29 28 29 32 31 31 28 30 31 33 39 45 44 41 46 48 42 42 41 36 32 33 36 57 52 61 78 75 70 70 49 68 90 78 91 88 95
15 12 12 14 12 10 11 9 7 12 18 24 29 27 31 33 32 31 30 29 30 36 42 48 47 50 52 47 48 40 36 37 35 34 34 57 50 53 57 73 72 47 69 83 92 89 89 93 94
11 14 14 12 11 11 12 10 8 8 14 19 25 28 30 31 30 29 30 30 30 38 44 50 58 64 52 47 47 42 39 38 37 34 48 50 52 55 61 55 69 60 55 60 72 89 81 95 95
11 13 14 12 10 11 12 12 9 8 10 13 17 27 27 28 29 30 30 30 32 38 44 54 59 68 61 50 50 43 42 34 35 36 50 52 54 58 57 64 67 68 67 69 66 80 81 93 80
9 10 12 12 10 10 12 14 12 8 10 11 11 12 21 26 30 30 32 31 33 38 45 54 60 65 66 61 52 50 45 42 38 41 43 51 57 58 62 62 62 60 56 72 79 75 72 90 92
9 6 7 8 11 12 9 12 11 9 9 10 9 12 13 22 26 29 27 29 30 34 40 48 58 63 68 69 59 67 51 44 38 44 41 45 58 56 56 62 66 74 53 77 77 58 72 80 86
6 6 6 9 9 8 9 10 12 9 8 9 9 8 9 13 20 25 26 27 26 31 34 43 57 65 65 71 70 58 62 42 40 41 56 61 64 58 53 61 70 73 56 61 62 66 73 85 88
5 5 6 6 6 8 8 8 10 8 8 8 7 6 13 12 15 22 25 26 26 27 32 36 55 67 66 69 71 73 69 62 45 49 43 42 42 45 61 56 68 75 79 73 61 71 75 84 77
4 5 7 8 7 8 6 9 10 7 6 6 6 8 12 16 15 19 24 25 27 29 33 35 49 63 62 63 68 68 69 70 66 58 46 51 40 37 57 67 68 56 70 65 72 80 80 80 88
6 4 6 15 9 8 8 12 9 5 4 4 5 8 11 13 14 16 21 24 28 30 32 36 43 57 58 62 68 72 69 55 55 55 46 43 41 37 51 68 58 64 64 73 73 58 77 73 70
5 6 4 4 4 6 7 8 6 6 5 5 7 5 6 12 14 16 18 22 26 28 31 36 41 50 53 54 62 68 69 69 57 64 60 49 56 40 52 54 57 62 66 68 70 56 69 81 85
5 4 5 5 13 15 8 9 9 8 7 7 6 6 7 9 15 15 17 19 22 23 26 32 36 40 49 47 53 56 61 68 65 63 64 60 56 58 63 62 61 63 70 67 72 70 77 81 81
6 5 5 4 5 9 10 9 6 9 8 7 7 9 9 10 12 16 16 17 20 20 21 27 34 36 41 42 46 52 54 56 62 57 60 63 54 62 67 71 66 67 72 69 74 76 74 75 73
5 6 4 6 10 6 7 8 7 8 7 8 9 12 13 14 14 15 16 15 18 19 18 23 31 34 35 41 46 47 52 57 50 56 54 56 62 58 65 68 70 70 73 72 71 72 68 76 78
Wind_Speed
13 12 5 5 6 4 12 8 14 10 9 11 9 9 10 17 16 6 22 18 22 22 20 17 13 15 15 14 13 13 12 11 10 8 8 8 7 8 9 10 12 12 12 11 12 14 12 13 14
9 7 6 6 4 11 7 13 11 10 10 12 6 6 13 19 12 19 18 22 22 21 19 18 14 14 14 14 12 12 11 10 9 8 7 7 7 6 7 9 10 12 11 13 12 13 12 14 14
13 7 6 5 7 8 8 13 10 9 4 8 5 9 9 9 12 14 21 22 22 20 18 19 15 14 14 13 12 10 10 9 8 7 6 7 6 6 7 11 11 11 11 13 13 13 13 14 13
6 8 5 3 11 15 11 12 11 9 6 4 4 14 11 8 11 14 21 21 20 19 22 19 16 15 14 13 11 9 8 8 8 8 8 7 8 7 7 10 12 11 12 13 12 12 12 13 12
11 4 6 5 14 8 12 7 6 10 6 5 6 14 9 1 8 22 21 19 18 20 20 18 16 14 13 13 11 9 8 8 8 9 7 9 8 9 9 12 11 11 12 13 13 14 14 12 11
9 3 5 6 14 10 13 8 7 9 8 8 7 14 9 11 18 20 19 18 16 20 18 18 16 14 14 13 11 9 9 8 8 9 8 8 7 9 10 12 12 12 13 13 11 13 11 11 11
10 5 6 11 13 14 9 5 10 7 7 6 5 17 9 15 19 19 18 17 16 20 19 16 15 14 14 12 11 8 9 10 9 9 8 8 8 9 9 9 12 11 10 12 12 11 9 8 10
9 10 14 27 10 14 4 9 5 11 14 6 2 10 15 18 19 18 17 16 16 18 18 16 16 14 12 12 11 9 8 8 9 9 8 9 8 9 9 10 10 11 12 11 11 11 10 11 10
9 7 10 16 15 8 4 8 7 3 10 6 3 5 25 22 19 17 16 16 14 13 17 18 17 13 9 8 11 10 9 8 8 11 8 10 5 8 12 8 10 11 12 10 11 9 9 11 11
7 7 10 8 10 8 15 6 6 6 6 9 8 19 22 22 19 18 17 16 17 15 16 16 12 15 12 13 13 9 10 9 9 8 10 6 7 5 5 11 10 9 11 10 9 7 8 11 8
2 8 7 8 10 9 10 4 2 3 8 11 12 17 20 21 18 18 17 16 16 15 12 16 14 15 14 12 9 6 7 7 8 4 6 3 8 7 6 7 7 9 10 8 10 7 8 8 2
5 6 7 6 4 5 7 3 3 6 10 5 16 17 19 21 19 18 16 16 16 16 14 15 14 11 12 12 7 7 7 5 3 8 6 4 4 7 6 6 6 2 7 9 2 4 3 4 5
5 9 8 7 1 1 3 6 5 5 5 5 17 18 18 17 19 18 17 16 16 17 15 14 15 11 8 6 10 10 5 7 6 9 7 4 4 4 6 8 6 5 3 5 5 3 6 3 2
9 7 5 3 2 5 9 11 10 9 8 12 15 17 17 17 19 17 17 16 15 15 16 14 15 13 10 9 5 4 6 7 6 6 9 6 4 3 3 5 8 10 5 1 7 5 4 6 7
9 11 7 5 3 4 8 17 13 11 10 13 15 16 17 17 17 17 17 16 15 14 15 15 14 15 12 11 8 7 6 7 5 6 11 8 7 5 3 1 1 3 6 10 8 7 7 6 3
11 9 8 8 9 3 14 5 13 10 11 13 15 15 16 17 17 16 17 16 15 15 15 14 13 17 15 12 10 8 6 5 6 5 8 8 7 7 4 5 5 6 5 5 7 7 6 4 3
10 10 4 2 2 7 7 9 11 13 13 12 13 16 16 16 17 18 18 17 17 15 15 14 14 14 16 11 9 9 8 6 6 6 5 10 8 9 6 3 3 4 7 9 8 8 7 5 4
7 5 6 4 4 9 12 7 5 16 13 15 15 16 17 18 20 19 19 18 17 15 15 15 13 12 12 10 9 8 7 7 7 6 6 11 8 9 7 4 4 6 3 5 6 9 8 5 6
16 10 10 10 3 8 12 12 10 2 15 12 17 16 17 19 19 20 20 20 19 17 16 16 14 11 11 10 10 9 9 8 8 7 7 8 8 9 8 6 6 7 6 7 8 5 7 4 4
11 14 15 12 5 9 13 13 15 2 4 16 15 18 17 20 21 21 22 22 20 19 18 17 16 15 12 10 9 9 8 8 8 8 9 9 11 10 9 8 6 8 4 6 7 6 4 4 8
15 16 15 15 10 13 18 15 17 8 7 6 7 11 19 19 21 22 23 23 21 21 20 18 17 17 13 12 9 8 7 7 8 8 9 11 12 12 11 10 8 6 7 7 8 9 10 5 5
18 11 12 10 11 12 8 9 7 8 4 13 9 11 13 21 21 22 24 24 23 20 20 19 18 17 15 13 11 11 10 9 9 9 9 10 13 13 12 12 11 9 9 4 9 9 8 7 6
13 10 13 10 14 17 18 9 10 8 8 4 6 6 3 13 22 23 24 24 23 21 20 19 18 17 16 15 12 11 11 9 8 8 9 10 11 13 13 11 11 10 9 9 9 4 9 7 6
16 9 11 13 13 14 18 15 13 6 4 6 9 10 6 5 15 21 21 21 20 20 20 19 18 17 17 17 18 12 13 11 9 9 9 10 10 11 12 12 10 9 8 10 9 9 8 7 7
13 14 11 12 12 12 16 13 6 8 8 10 7 7 3 3 10 18 20 20 19 21 21 18 19 19 19 19 17 17 14 13 11 8 10 9 10 10 11 14 10 10 10 10 9 6 8 8 7
14 15 12 12 11 11 17 6 8 9 4 7 9 4 2 5 8 14 20 19 19 19 21 20 20 19 19 19 17 15 15 12 12 12 10 10 10 9 7 13 11 11 11 8 8 8 7 7 8
17 16 13 20 18 13 10 8 10 8 10 4 5 5 5 2 7 12 17 19 19 18 19 19 19 19 19 20 16 16 15 15 13 13 11 10 9 9 7 8 8 9 9 10 9 8 8 7 6
14 16 10 13 15 16 9 10 7 1 2 5 7 7 6 9 2 10 14 16 17 17 18 18 18 19 19 19 17 15 17 16 15 12 13 11 11 11 7 9 9 10 9 11 9 9 8 9 8
11 12 14 18 12 12 12 10 7 10 6 4 3 7 9 7 7 7 12 14 16 16 17 19 18 18 18 18 17 16 16 17 15 15 14 13 13 10 10 9 10 11 10 10 10 9 9 10 10
11 12 15 14 15 11 13 11 10 5 5 1 5 7 9 8 6 5 11 14 15 16 16 18 19 18 17 16 15 16 15 14 16 16 16 14 14 13 11 11 12 12 10 11 11 12 10 9 9
Wind_Direction
181 204 231 253 248 185 75 92 92 103 80 91 62 40 67 33 37 77 129 142 137 132 132 141 133 126 124 118 114 109 108 108 106 105 107 107 108 103 102 112 122 121 116 112 101 100 102 103 104
159 209 229 260 223 95 88 81 88 75 78 107 109 93 94 60 68 115 136 132 137 137 146 137 133 129 125 120 119 116 114 114 115 112 107 102 103 107 120 124 128 125 119 112 111 106 108 97 102
245 236 247 261 49 34 80 83 89 86 116 144 100 82 63 71 105 128 122 141 135 139 145 123 135 134 132 128 125 122 121 122 120 116 113 115 114 97 112 123 121 117 116 114 115 107 108 103 108
227 206 226 246 74 62 67 73 93 120 120 160 342 93 98 14 126 119 141 145 136 154 122 134 137 137 136 135 132 133 136 136 127 112 112 116 109 107 106 122 124 123 113 114 112 104 98 105 106
247 275 327 303 84 85 87 85 113 101 116 143 69 72 70 108 118 130 147 144 144 128 120 139 142 142 142 140 138 138 122 107 119 118 127 118 117 117 113 124 130 126 124 121 120 115 109 105 105
261 219 72 68 90 73 104 105 148 119 77 93 115 80 79 151 138 145 151 142 154 117 137 135 142 148 144 146 142 137 124 121 122 125 118 113 128 113 124 129 133 131 126 126 121 121 100 103 113
291 266 87 83 107 91 72 88 118 97 147 95 80 90 115 144 144 148 152 144 146 129 128 146 149 148 154 151 146 145 138 133 133 131 123 124 115 121 131 129 123 133 125 125 119 118 109 120 115
284 322 10 79 313 74 83 71 62 13 56 60 205 119 145 143 154 153 149 150 142 141 139 144 147 158 163 156 153 149 148 140 143 137 136 128 125 134 134 138 134 136 130 133 123 120 105 113 119
270 241 62 31 53 80 111 111 58 266 116 25 57 142 140 148 158 159 154 155 146 164 147 155 153 149 172 175 151 160 157 152 145 150 159 165 149 169 160 112 131 136 130 134 127 129 129 134 132
295 44 28 7 7 11 101 19 84 143 90 104 91 103 139 154 163 166 165 164 163 168 163 143 168 162 187 191 148 189 158 176 186 169 175 185 168 131 82 121 135 139 135 138 134 155 175 190 150
332 19 358 16 29 353 54 142 85 360 129 112 134 142 151 159 173 172 173 173 168 168 172 149 165 175 175 112 149 179 192 158 151 221 180 131 143 161 179 133 155 158 173 171 172 185 220 105 189
309 360 1 353 17 331 54 48 80 44 63 53 134 154 164 167 177 176 181 178 172 169 176 164 155 182 172 139 171 205 178 175 177 160 225 112 238 171 154 128 214 139 182 172 139 113 44 127 128
336 8 337 13 40 15 195 99 51 98 99 126 132 155 173 177 180 181 180 183 181 171 176 184 155 174 185 180 165 203 172 192 163 148 172 185 314 216 167 151 187 185 156 129 146 173 107 37 186
339 333 326 45 84 144 260 143 207 109 138 127 149 160 176 184 181 182 181 184 187 174 174 181 163 172 202 191 209 211 188 187 140 168 148 184 214 178 257 162 182 154 182 164 139 125 118 51 64
307 283 182 45 15 350 311 315 114 121 148 154 165 169 175 187 178 182 183 183 189 177 172 177 178 175 200 190 191 225 180 184 225 162 138 193 144 218 219 133 297 303 120 183 97 111 100 100 95
250 254 234 81 346 35 305 106 98 146 173 168 174 175 178 183 179 180 189 184 190 179 175 182 187 180 185 188 183 208 214 224 191 225 158 193 177 162 183 179 183 219 194 135 122 119 150 145 149
198 271 44 167 120 333 312 334 151 167 177 175 185 182 183 185 184 179 188 187 187 186 177 186 188 196 170 191 191 213 201 222 195 206 212 165 202 161 181 231 191 191 233 129 135 167 162 181 203
316 230 171 270 355 322 301 294 304 164 197 177 191 192 190 189 190 178 188 189 188 186 179 183 188 195 184 183 207 199 211 205 228 204 209 152 203 193 198 210 117 200 164 117 149 175 187 174 198
295 303 287 278 345 298 304 309 310 184 172 211 181 206 193 196 191 186 189 187 189 186 180 185 191 184 190 199 197 207 207 199 208 216 193 179 209 200 195 246 160 194 252 194 200 173 199 193 172
294 262 266 271 264 270 297 296 290 284 234 187 206 185 207 197 192 194 191 190 196 183 187 188 187 190 199 197 205 210 205 208 206 208 174 200 201 203 205 234 210 204 214 202 199 208 209 176 173
255 262 270 277 313 293 266 263 254 200 196 191 242 207 185 202 198 195 195 196 193 186 190 188 190 186 197 204 201 205 212 224 202 213 194 192 210 205 216 206 235 252 252 189 204 202 203 197 180
268 259 272 280 277 267 240 285 280 253 233 200 217 180 204 186 199 196 199 199 194 198 187 190 193 191 194 206 196 203 207 204 214 207 209 193 201 213 215 217 223 220 248 260 186 204 203 206 211
274 314 295 260 262 258 264 244 273 263 243 229 219 172 261 201 186 198 199 201 202 193 192 191 190 196 192 193 225 195 218 209 207 217 209 205 184 212 218 221 221 232 233 237 262 220 199 210 219
261 255 260 258 252 252 251 259 244 272 340 329 324 338 60 253 196 187 195 197 201 191 197 188 186 194 199 192 205 215 200 230 213 208 204 207 216 198 213 227 221 234 238 243 253 229 235 225 231
247 239 246 225 219 242 242 243 300 320 324 287 335 310 118 212 193 182 190 195 195 194 189 191 185 195 199 199 202 211 216 205 232 233 215 225 216 216 195 196 209 222 222 241 252 227 244 243 230
204 245 259 258 260 262 207 200 244 257 324 305 265 164 196 228 196 187 184 190 193 195 187 192 185 194 199 204 203 207 211 215 214 214 239 217 240 235 218 181 202 216 236 234 234 242 242 240 235
248 251 266 278 278 274 274 194 176 232 249 201 312 55 2 133 159 182 182 183 186 192 194 193 189 193 199 201 203 205 208 219 216 222 202 238 245 241 232 216 228 227 240 234 234 242 230 238 242
261 278 249 225 261 273 263 232 248 161 139 5 275 31 27 1 202 178 178 182 184 190 190 192 197 194 199 202 200 206 209 209 221 216 223 226 224 223 260 203 220 229 232 235 227 238 235 236 234
188 233 245 280 269 255 241 259 334 169 106 289 5 33 19 360 338 179 178 179 185 186 183 187 194 201 196 202 197 204 207 209 213 219 218 219 228 226 210 224 217 227 229 232 231 233 236 239 232
299 287 224 240 233 265 295 301 87 79 125 75 35 44 35 4 356 270 185 181 183 189 190 185 189 197 199 199 198 198 204 207 207 215 216 218 220 222 222 215 221 225 224 224 223 230 235 223 234